星链-34790(STARLINK-34790)

导读

STARLINK-34790是美国SpaceX公司星链星座的成员,于2025年9月21日发射,属于Starlink Group 10-27任务组。星链卫星是低轨通信卫星,采用平板设计,配备氪工质霍尔推进器,搭载Ku/Ka波段通信载荷,支持光学星间链路与自主避撞,旨在为全球提供宽带互联网服务,设计寿命5-7年,退役后会主动离轨再入大气层烧毁。

基本信息
目录编号:
65690
目录名称:
STARLINK-34790
国际标识:
2025-212Q
轨道中心:
EARTH
卫星名称:
星链-34790
卫星全名:
星链-34790(STARLINK-34790)
卫星状态:
在轨 (已飞行357 天)
发射日期:
2025-09-21 UTC
国别 :
美国 (US)
星等 :
--
该卫星已列入 空间交会检测服务 Space Conjunction Data Service (SCDS) ,当前飞行风险评估等级: 无高风险
轨道信息
数据来源 国际轨道数据 AOE轨道数据
星历时间 2026-09-12T14:11:02+0800
19小时前
查看轨道信息
2026-09-06T22:00:00+0800
6天前
查看轨道信息
半长轴 6840.795km 6840.858km
偏心率 0.0001186 0.0001289
轨道倾角 53.157° 53.155°
近地点辐角 111.844° 71.771°
升交点赤经 196.554° 223.081°
平近点角 248.269° 246.921°
近地点 461.846km 461.839km
远地点 463.47km 463.603km
周期 93.847分钟 93.848分钟
每日圈数 15.344153 15.343943
详细信息
固有亮度:
5
最大亮度:
2.5
卫星平台:
Starlink V1.0
覆盖范围:
全球
运营商:
太空探索技术公司
运营商所在国:
美国
制造商(研发单位):
太空探索技术公司
制造商所在国:
美国
使用方式:
暂无
卫星简介
Starlink 计划是 SpaceX 推出的全球卫星互联网项目,通过发射低轨道卫星,为全球尤其是偏远地区提供高速、低延迟的互联网服务。自 2019 年起,Starlink 已部署数千颗卫星,旨在缩小全球数字鸿沟,推动互联网普及。该项目还为军事、航空等行业提供通信支持,带来广泛经济效益。
2D轨道图
3D轨道图
轨道高度分析图
轨道倾角分析图
轨道综合分析图
查看轨道综合分析图
交会数据列表
事件ID 空间交会对象 最接近时刻(TCA) 交会距离 交会风险概率(CRP) 交会风险指数(CRI) 操作
CDM_260915-040405-897206-569021
2026-09-15T
04:04:13+0000
0.872 km
远距离
2.025136E-5 中风险 0.61
CDM_260911-055106-569006-661822
2026-09-11T
05:51:46+0000
1.201 km
极远距离
1.23556E-5 中风险 0.57
CDM_260911-062606-569006-952821
2026-09-11T
06:26:31+0000
1.128 km
极远距离
1.069582E-5 中风险 0.56
CDM_260912-025405-230106-569022
2026-09-12T
02:54:13+0000
2.385 km
极远距离
1.626354E-6 低风险 0.39
CDM_260907-131705-186506-569021
2026-09-07T
13:17:54+0000
2.196 km
极远距离
1.154121E-6 低风险 0.36
CDM_260911-004405-362606-569021
2026-09-11T
00:44:07+0000
2.931 km
极远距离
1.0155E-6 低风险 0.35
与全量物体交会距离演化趋势
与全量物体交会风险概率演化趋势